When you browse on this site, cookies collect data to enhance your experience and personalize the content and advertising you see.
Visit our Privacy Policy to learn more. By continuing to use the site, you agree to this use of cookies and data.
  • In Spain
  • List of Countries
  • For 7 days
  • Water Temperature
  • Satellite Maps
  • Weather Map
  • Weather Widgets
  • user-avatar
    Login

    Hourly Weather Wiktoria

    Today, 21 January, Monday

    Time Temperature Precipitation Wind Pressure Humidity
    00:00 +23°C° 0 mm 5 mps 750 mmHg 64%
    01:00 +22°C° 0 mm 4 mps 750 mmHg 67%
    02:00 +21°C° 0 mm 4 mps 750 mmHg 69%
    03:00 +21°C° 0 mm 4 mps 750 mmHg 71%
    04:00 +20°C° 0 mm 3 mps 750 mmHg 77%
    05:00 +21°C° 0 mm 3 mps 750 mmHg 71%
    06:00 +22°C° 0 mm 3 mps 750 mmHg 66%
    07:00 +24°C° 0 mm 3 mps 750 mmHg 61%
    08:00 +27°C° 0 mm 3 mps 750 mmHg 54%
    09:00 +30°C° 0 mm 3 mps 750 mmHg 48%
    10:00 +34°C° 0 mm 4 mps 750 mmHg 41%
    11:00 +36°C° 0 mm 3 mps 749 mmHg 35%
    12:00 +38°C° 0 mm 2 mps 749 mmHg 29%
    13:00 +40°C° 0 mm 1 mps 748 mmHg 22%
    14:00 +40°C° 0 mm 1 mps 748 mmHg 21%
    15:00 +41°C° 0 mm 1 mps 747 mmHg 19%
    16:00 +41°C° 0 mm 1 mps 746 mmHg 18%
    17:00 +40°C° 0 mm 1 mps 747 mmHg 19%
    18:00 +39°C° 0 mm 1 mps 747 mmHg 21%
    19:00 +37°C° 0 mm 1 mps 747 mmHg 23%
    20:00 +35°C° 0 mm 2 mps 747 mmHg 31%
    21:00 +33°C° 0 mm 3 mps 747 mmHg 40%
    22:00 +29°C° 0 mm 5 mps 748 mmHg 48%
    23:00 +28°C° 0 mm 4 mps 748 mmHg 52%

    Tomorrow, 22 January, Tuesday

    Time Temperature Precipitation Wind Pressure Humidity
    00:00 +27°C° 0 mm 4 mps 748 mmHg 56%
    01:00 +26°C° 0 mm 3 mps 748 mmHg 61%
    02:00 +25°C° 0 mm 3 mps 747 mmHg 62%
    03:00 +25°C° 0 mm 3 mps 747 mmHg 63%
    04:00 +24°C° 0 mm 2 mps 747 mmHg 65%
    05:00 +25°C° 0 mm 2 mps 747 mmHg 61%
    06:00 +26°C° 0 mm 2 mps 747 mmHg 57%
    07:00 +27°C° 0 mm 2 mps 748 mmHg 54%
    08:00 +30°C° 0 mm 2 mps 747 mmHg 45%
    09:00 +34°C° 0 mm 2 mps 747 mmHg 37%
    10:00 +37°C° 0 mm 2 mps 747 mmHg 28%
    11:00 +39°C° 0 mm 2 mps 747 mmHg 24%
    12:00 +40°C° 0 mm 2 mps 746 mmHg 20%
    13:00 +43°C° 0 mm 3 mps 746 mmHg 15%
    14:00 +43°C° 0 mm 3 mps 745 mmHg 14%
    15:00 +44°C° 0 mm 3 mps 745 mmHg 14%
    16:00 +44°C° 0 mm 3 mps 744 mmHg 13%
    17:00 +42°C° 0 mm 2 mps 744 mmHg 15%
    18:00 +41°C° 0 mm 2 mps 744 mmHg 16%
    19:00 +40°C° 0 mm 1 mps 744 mmHg 18%
    20:00 +38°C° 0 mm 3 mps 745 mmHg 22%
    21:00 +36°C° 0 mm 4 mps 745 mmHg 26%
    22:00 +35°C° 0 mm 5 mps 746 mmHg 30%
    23:00 +33°C° 0 mm 6 mps 746 mmHg 33%

    Day after tomorrow, 23 January, Wednesday

    Time Temperature Precipitation Wind Pressure Humidity
    00:00 +32°C° 0 mm 6 mps 746 mmHg 37%
    01:00 +29°C° 0 mm 6 mps 746 mmHg 40%
    02:00 +29°C° 0 mm 6 mps 746 mmHg 41%
    03:00 +28°C° 0 mm 6 mps 746 mmHg 42%
    04:00 +27°C° 0 mm 6 mps 746 mmHg 44%
    05:00 +27°C° 0 mm 6 mps 746 mmHg 44%
    06:00 +27°C° 0 mm 6 mps 747 mmHg 44%
    07:00 +27°C° 0 mm 6 mps 747 mmHg 44%
    08:00 +29°C° 0 mm 6 mps 747 mmHg 39%
    09:00 +32°C° 0 mm 6 mps 747 mmHg 35%
    10:00 +35°C° 0 mm 6 mps 747 mmHg 30%
    11:00 +38°C° 0 mm 6 mps 746 mmHg 25%
    12:00 +40°C° 0 mm 6 mps 746 mmHg 20%
    13:00 +42°C° 0 mm 6 mps 746 mmHg 15%
    14:00 +43°C° 0 mm 7 mps 745 mmHg 17%
    15:00 +41°C° 0 mm 8 mps 745 mmHg 18%
    16:00 +42°C° 0 mm 9 mps 745 mmHg 19%
    17:00 +38°C° 0 mm 9 mps 745 mmHg 26%
    18:00 +34°C° 0 mm 8 mps 746 mmHg 33%
    19:00 +31°C° 0 mm 8 mps 746 mmHg 40%
    20:00 +28°C° 0 mm 8 mps 747 mmHg 47%
    21:00 +26°C° 0 mm 7 mps 747 mmHg 54%
    22:00 +23°C° 0 mm 7 mps 748 mmHg 61%
    23:00 +22°C° 0 mm 6 mps 748 mmHg 64%

    24 January, Thursday

    Time Temperature Precipitation Wind Pressure Humidity
    00:00 +22°C° 0 mm 5 mps 748 mmHg 67%
    01:00 +21°C° 0 mm 5 mps 748 mmHg 69%
    02:00 +21°C° 0 mm 4 mps 748 mmHg 71%
    03:00 +21°C° 0 mm 4 mps 748 mmHg 72%
    04:00 +20°C° 0 mm 3 mps 748 mmHg 74%
    05:00 +21°C° 0 mm 3 mps 748 mmHg 70%
    06:00 +22°C° 0 mm 3 mps 748 mmHg 65%
    07:00 +24°C° 0 mm 3 mps 749 mmHg 61%
    08:00 +27°C° 0 mm 3 mps 748 mmHg 54%
    09:00 +30°C° 0 mm 3 mps 748 mmHg 47%
    10:00 +34°C° 0 mm 3 mps 748 mmHg 40%
    11:00 +36°C° 0 mm 3 mps 747 mmHg 34%
    12:00 +38°C° 0 mm 2 mps 747 mmHg 28%
    13:00 +40°C° 0 mm 2 mps 746 mmHg 22%
    14:00 +41°C° 0 mm 1 mps 745 mmHg 20%
    15:00 +42°C° 0 mm 1 mps 745 mmHg 18%
    16:00 +43°C° 0 mm 1 mps 744 mmHg 16%
    17:00 +42°C° 0 mm 1 mps 744 mmHg 17%
    18:00 +40°C° 0 mm 1 mps 744 mmHg 18%
    19:00 +39°C° 0 mm 1 mps 744 mmHg 20%
    20:00 +38°C° 0 mm 2 mps 744 mmHg 21%
    21:00 +36°C° 0 mm 2 mps 745 mmHg 22%
    22:00 +34°C° 0 mm 2 mps 745 mmHg 24%
    23:00 +34°C° 0 mm 3 mps 745 mmHg 27%

    25 January, Friday

    Time Temperature Precipitation Wind Pressure Humidity
    00:00 +33°C° 0 mm 5 mps 745 mmHg 30%
    01:00 +32°C° 0 mm 6 mps 745 mmHg 34%
    02:00 +30°C° 0 mm 6 mps 745 mmHg 40%
    03:00 +29°C° 0 mm 6 mps 744 mmHg 46%
    04:00 +27°C° 0 mm 6 mps 744 mmHg 52%
    05:00 +28°C° 0 mm 7 mps 744 mmHg 52%
    06:00 +28°C° 0 mm 7 mps 744 mmHg 52%
    07:00 +28°C° 0 mm 7 mps 745 mmHg 52%
    08:00 +32°C° 0 mm 7 mps 744 mmHg 47%
    09:00 +34°C° 0 mm 6 mps 744 mmHg 41%
    10:00 +38°C° 0 mm 6 mps 744 mmHg 36%
    11:00 +40°C° 0 mm 6 mps 743 mmHg 31%
    12:00 +44°C° 0 mm 6 mps 742 mmHg 25%
    13:00 +47°C° 0 mm 5 mps 742 mmHg 20%
    14:00 +47°C° 0 mm 5 mps 741 mmHg 18%
    15:00 +48°C° 0 mm 4 mps 741 mmHg 17%
    16:00 +48°C° 0 mm 4 mps 740 mmHg 15%
    17:00 +46°C° 0.1 mm 5 mps 740 mmHg 18%
    18:00 +42°C° 0.1 mm 5 mps 741 mmHg 21%
    19:00 +40°C° 0.1 mm 6 mps 741 mmHg 25%
    20:00 +38°C° 0 mm 6 mps 742 mmHg 30%
    21:00 +35°C° 0 mm 5 mps 743 mmHg 36%
    22:00 +33°C° 0 mm 5 mps 743 mmHg 42%
    23:00 +30°C° 0.2 mm 4 mps 743 mmHg 48%

    26 January, Saturday

    Time Temperature Precipitation Wind Pressure Humidity
    00:00 +29°C° 0.2 mm 4 mps 743 mmHg 55%
    01:00 +27°C° 0.2 mm 4 mps 743 mmHg 61%
    02:00 +26°C° 0.1 mm 4 mps 743 mmHg 66%
    03:00 +23°C° 0.1 mm 4 mps 743 mmHg 70%
    04:00 +22°C° 0.1 mm 4 mps 743 mmHg 75%
    05:00 +22°C° 0 mm 4 mps 743 mmHg 73%
    06:00 +22°C° 0 mm 4 mps 743 mmHg 71%
    07:00 +22°C° 0 mm 4 mps 744 mmHg 69%
    08:00 +25°C° 0 mm 4 mps 744 mmHg 59%
    09:00 +27°C° 0 mm 4 mps 744 mmHg 49%
    10:00 +29°C° 0 mm 3 mps 744 mmHg 40%
    11:00 +31°C° 0 mm 3 mps 743 mmHg 33%
    12:00 +34°C° 0 mm 4 mps 743 mmHg 27%
    13:00 +36°C° 0 mm 4 mps 742 mmHg 21%
    14:00 +37°C° 0 mm 4 mps 742 mmHg 19%
    15:00 +39°C° 0 mm 5 mps 742 mmHg 17%
    16:00 +40°C° 0 mm 6 mps 741 mmHg 15%
    17:00 +37°C° 0 mm 5 mps 741 mmHg 17%
    18:00 +36°C° 0 mm 5 mps 742 mmHg 18%
    19:00 +35°C° 0 mm 5 mps 742 mmHg 19%
    20:00 +33°C° 0 mm 5 mps 743 mmHg 23%
    21:00 +29°C° 0 mm 4 mps 743 mmHg 28%
    22:00 +27°C° 0 mm 4 mps 744 mmHg 32%
    23:00 +25°C° 0 mm 4 mps 744 mmHg 44%
    Show more